KMOLAKE37 Weather Reports


Display with metric or nautical units.
time (UTC)temp
F
wind
direction
speed
MPH
gust
MPH
rain 1hr
in
rain 24hr
in
rain mn
in
humidity
%
barometer
mb
20260505081535 62 0 0.0 0.0 0.01 0.01 0.01 80 1006.0
20260505080048 64 0 0.0 1.0 0.00 0.00 0.00 72 1006.0
20260505074535 64 32 1.0 3.0 0.00 0.00 0.00 71 1006.3
20260505073038 64 13 0.0 1.0 0.00 0.00 0.00 69 1006.1
20260505071542 65 0 1.0 4.0 0.00 0.00 0.00 67 1006.6
20260505070036 67 25 1.0 5.0 0.00 0.00 0.00 64 1006.8
20260505064535 68 41 1.0 6.0 0.00 0.00 0.00 62 1006.7
20260505063046 70 342 2.0 7.0 0.00 0.00 0.00 61 1006.8
20260505061538 71 234 3.0 12.0 0.00 0.00 0.00 64 1005.3
20260505060033 71 235 4.0 11.0 0.00 0.00 0.00 64 1004.9
20260505054544 71 233 4.0 11.0 0.00 0.00 0.00 63 1004.5
20260505053040 72 224 5.0 10.0 0.00 0.00 0.00 62 1004.7
20260505051541 72 335 4.0 8.0 0.00 0.00 0.00 61 1004.2
20260505041534 72 266 3.0 7.0 0.00 0.00 0.00 61 1004.0
20260505040035 72 232 3.0 5.0 0.00 0.00 0.00 61 1003.8
20260505034534 72 267 1.0 6.0 0.00 0.00 0.00 61 1004.2
20260505033036 73 236 2.0 7.0 0.00 0.00 0.00 61 1004.3
20260505031538 73 264 1.0 5.0 0.00 0.00 0.00 60 1004.3
20260505030041 73 274 0.0 3.0 0.00 0.00 0.00 60 1004.2
20260505024534 73 265 1.0 2.0 0.00 0.00 0.00 61 1004.0
20260505023036 73 266 0.0 1.0 0.00 0.00 0.00 60 1004.0
20260505021537 74 265 0.0 2.0 0.00 0.00 0.00 59 1003.6
20260505020039 75 0 0.0 3.0 0.00 0.00 0.00 56 1003.2
20260505014537 75 266 0.0 5.0 0.00 0.00 0.00 55 1002.8
20260505013033 75 256 2.0 7.0 0.00 0.00 0.00 56 1002.7
20260505011541 76 259 1.0 5.0 0.00 0.00 0.00 54 1002.7
20260505004534 77 243 3.0 9.0 0.00 0.00 0.00 52 1002.6
20260505003041 78 241 4.0 13.0 0.00 0.00 0.00 53 1002.5
20260505001535 78 238 3.0 7.0 0.00 0.00 0.00 54 1002.4
20260505000044 79 238 3.0 9.0 0.00 0.00 0.00 51 1002.5
20260504234537 80 241 4.0 10.0 0.00 0.00 0.00 50 1002.5
20260504233034 80 255 4.0 9.0 0.00 0.00 0.00 51 1002.5
20260504231542 81 247 3.0 11.0 0.00 0.00 0.00 50 1002.6
20260504230042 81 214 4.0 11.0 0.00 0.00 0.00 48 1002.8
20260504224536 81 218 4.0 12.0 0.00 0.00 0.00 49 1002.8
20260504223038 81 285 5.0 14.0 0.00 0.00 0.00 49 1003.0
20260504221548 81 283 3.0 13.0 0.00 0.00 0.00 48 1003.0
20260504220034 81 265 3.0 10.0 0.00 0.00 0.00 50 1003.0
20260504214539 81 270 6.0 15.0 0.00 0.00 0.00 49 1002.9
20260504213052 82 240 2.0 8.0 0.00 0.00 0.00 49 1003.0
20260504211539 81 281 7.0 14.0 0.00 0.00 0.00 50 1002.9
20260504210034 81 229 4.0 15.0 0.00 0.00 0.00 50 1003.2
20260504204535 81 264 4.0 18.0 0.00 0.00 0.00 51 1003.2
20260504203048 80 213 3.0 13.0 0.00 0.00 0.00 53 1003.2
20260504201538 80 260 4.0 12.0 0.00 0.00 0.00 54 1003.6
20260504200035 79 288 3.0 12.0 0.00 0.00 0.00 55 1003.9
20260504194541 77 138 5.0 9.0 0.00 0.00 0.00 60 1004.2
20260504193036 75 251 2.0 8.0 0.00 0.00 0.00 61 1004.3
20260504191538 74 292 1.0 3.0 0.00 0.00 0.00 64 1004.5
20260504190038 71 236 1.0 4.0 0.00 0.00 0.00 68 1004.7
20260504184538 68 38 2.0 8.0 0.00 0.00 0.00 68 1004.0
20260504183039 68 32 1.0 5.0 0.00 0.00 0.00 68 1004.6
20260504181537 69 0 1.0 6.0 0.00 0.00 0.00 64 1005.5
20260504180040 70 8 0.0 4.0 0.00 0.00 0.00 62 1005.5
20260504174543 71 30 0.0 5.0 0.00 0.00 0.00 61 1005.5
20260504173039 71 58 1.0 5.0 0.00 0.00 0.00 60 1005.7
20260504171538 71 273 2.0 4.0 0.00 0.00 0.00 62 1006.1
20260504160209 65 226 4.0 11.0 0.00 0.00 0.00 70 1006.6